Temperature
22 22 20 21 25 27 25 28 32 32 33 33 32 31 29 28 27 26 26 24 23 23 23 22 22 21 21 20 20 20 20 20 19 19 19 19 19 19 19 19 19 19 19 19 19 19 19 19 19
22 21 22 25 28 26 25 27 30 32 33 33 32 31 29 28 27 26 25 24 22 22 22 22 21 21 20 20 20 20 20 19 19 19 19 19 19 19 19 19 19 19 19 19 19 19 19 19 19
21 22 25 29 30 29 27 29 32 33 33 33 32 30 28 27 27 25 24 24 22 21 22 22 21 21 20 20 20 20 20 19 19 19 19 19 19 19 19 19 19 19 18 18 18 18 19 19 19
21 24 27 30 31 32 32 32 33 33 33 33 31 28 26 25 26 25 24 24 22 21 22 22 21 21 20 20 20 20 19 19 19 19 19 19 19 19 19 19 19 19 18 18 18 18 18 19 19
23 27 29 30 32 33 33 33 32 33 31 31 30 27 25 25 25 25 25 24 22 21 21 22 21 21 20 20 20 19 19 19 19 19 19 19 19 19 19 19 19 19 18 18 18 18 18 18 19
26 29 29 30 32 31 32 32 32 32 31 29 28 27 24 24 25 25 25 24 23 21 21 21 21 20 20 20 19 19 19 19 19 19 19 19 19 19 19 19 19 18 18 18 18 18 18 18 18
27 29 29 31 32 31 31 31 30 29 29 29 28 26 24 24 25 25 25 24 23 21 21 21 21 20 20 20 19 19 19 19 19 19 19 19 19 19 19 19 18 18 18 18 18 18 18 18 18
27 29 29 31 32 31 31 30 29 27 25 27 27 26 24 23 24 24 24 23 22 21 21 20 19 19 19 19 19 19 19 19 19 19 19 19 19 19 19 19 19 18 18 18 18 18 18 18 18
28 28 29 31 31 30 30 29 28 27 25 26 26 26 24 23 23 24 23 23 22 21 21 20 20 19 19 19 19 19 19 19 18 18 18 18 18 18 18 18 18 18 18 18 18 18 18 18 18
29 29 30 32 31 30 29 29 28 28 27 24 23 23 23 23 23 24 23 22 22 21 21 20 20 19 19 19 19 19 18 18 18 18 18 18 18 18 18 18 18 18 18 18 18 18 18 18 18
30 30 31 32 31 30 30 29 28 27 24 22 22 23 23 23 23 24 23 22 21 21 20 20 20 19 19 19 19 18 18 18 18 18 18 18 18 18 18 18 18 18 18 18 18 18 18 18 18
30 31 31 31 31 31 30 29 28 26 22 21 22 22 23 24 24 23 23 22 21 20 20 20 19 19 19 19 19 18 18 18 18 18 18 18 18 18 18 18 18 18 18 18 18 17 17 17 17
30 30 30 30 30 29 30 29 28 24 22 23 23 23 24 24 23 23 22 21 20 20 19 19 19 19 19 19 19 18 18 18 18 17 18 18 17 17 17 17 17 17 17 17 17 17 17 17 17
30 30 30 29 29 29 29 29 27 24 23 23 23 23 23 23 23 22 21 21 20 19 19 19 18 18 18 18 18 18 18 18 17 17 17 17 17 17 17 17 17 17 17 17 17 17 17 17 17
29 28 27 27 28 29 29 27 24 24 23 23 23 23 23 22 22 21 21 20 19 19 18 18 18 18 18 18 18 18 18 17 17 16 16 16 16 16 17 16 16 16 16 16 17 17 17 17 17
28 26 23 24 26 28 28 22 21 22 23 23 23 22 22 21 21 20 20 19 19 19 18 18 18 18 18 18 18 18 17 17 17 16 16 16 15 15 16 16 16 16 16 16 16 16 16 16 16
27 25 23 23 26 27 26 20 20 21 22 22 22 22 21 21 20 20 19 19 18 18 18 18 18 18 18 18 18 17 17 17 16 16 16 15 15 14 15 15 15 15 15 15 16 16 16 16 16
28 27 25 24 26 27 25 21 20 21 22 22 21 21 20 20 20 19 19 19 18 18 18 18 18 18 18 18 17 17 17 17 16 16 16 15 14 14 14 14 14 14 15 15 15 15 15 15 16
30 27 25 25 27 27 26 23 22 22 22 21 21 21 20 20 20 19 19 19 18 18 18 18 18 18 18 17 17 17 17 17 16 16 15 15 14 14 14 13 14 14 14 14 14 14 14 15 15
29 26 25 26 27 27 25 23 24 23 22 22 22 21 21 20 20 19 19 19 19 18 18 18 18 18 18 17 17 17 17 16 16 16 15 14 14 13 13 13 13 13 13 13 13 13 13 14 14
27 26 27 27 28 27 24 22 23 24 24 22 22 21 21 21 20 20 20 20 19 19 19 19 18 18 18 17 17 17 16 16 16 16 15 15 14 13 13 12 12 12 13 13 13 13 13 13 14
28 29 29 29 27 25 24 22 23 24 24 24 22 22 22 22 21 21 21 20 20 20 19 19 19 18 18 17 17 16 16 16 16 16 15 15 14 13 13 12 12 12 12 12 12 13 13 13 13
30 30 28 26 24 23 22 23 24 24 24 24 24 23 23 23 22 22 21 21 21 21 20 19 19 18 18 17 17 16 16 16 16 15 15 14 14 14 13 13 12 12 12 12 12 12 12 12 12
31 29 26 23 21 20 22 24 24 25 25 25 25 24 24 23 23 22 22 22 22 21 21 20 19 18 18 17 17 16 16 15 15 15 14 14 14 14 14 13 12 12 12 12 12 12 12 12 12
28 28 25 21 19 20 24 25 25 27 27 27 26 25 25 24 24 23 23 22 22 22 21 20 19 19 18 17 16 16 15 15 15 15 14 14 14 14 14 13 13 12 12 11 11 11 11 11 11
29 29 27 26 25 24 26 26 27 29 28 28 27 26 25 25 24 24 23 23 22 22 21 21 20 19 18 17 17 16 16 15 15 15 14 14 14 13 13 13 12 12 11 11 11 11 11 11 11
30 30 30 29 28 26 26 27 28 29 28 28 27 27 26 26 25 24 24 23 23 22 22 21 20 19 18 17 17 16 16 15 15 14 14 13 13 13 13 12 12 11 11 11 11 11 11 11 11
31 30 30 28 27 26 24 25 25 27 28 28 28 27 27 26 26 25 25 24 23 22 21 20 20 19 18 17 17 16 16 15 14 14 13 13 13 13 12 12 12 11 11 11 11 11 11 11 11
29 30 29 29 28 27 24 23 26 27 28 28 28 28 27 27 26 26 25 24 23 22 21 20 19 19 18 17 17 16 16 15 14 14 13 13 12 12 12 12 12 11 11 11 11 11 11 11 11
30 30 29 28 27 27 27 26 29 29 30 29 29 28 28 27 27 26 25 24 23 22 21 20 19 18 18 17 17 16 16 15 14 14 13 13 13 12 12 12 12 11 11 11 11 11 11 11 10
Wind_Speed
12 13 11 8 7 5 6 9 6 11 12 12 13 16 19 17 12 12 15 23 24 21 19 18 16 15 13 12 11 11 11 11 12 12 11 11 11 10 9 8 8 7 7 7 7 8 8 7 7
12 13 10 7 8 5 2 8 3 8 9 10 14 19 21 19 17 16 18 21 23 20 19 18 17 15 14 13 12 12 12 12 12 12 11 11 10 9 8 7 6 6 6 6 6 6 6 6 6
13 16 8 8 14 8 6 7 3 6 6 8 13 16 13 13 15 14 17 20 22 19 19 19 17 15 14 13 12 12 12 12 11 10 10 9 8 7 6 5 5 4 4 4 4 4 5 5 5
8 10 7 11 19 9 5 3 3 4 6 9 14 13 10 8 13 18 18 20 22 20 19 18 16 15 13 12 11 11 11 10 9 9 8 7 6 5 5 4 3 3 3 3 3 3 4 4 3
10 8 12 17 20 9 4 2 4 4 5 5 15 14 12 10 17 18 17 20 18 19 19 18 16 14 12 10 9 9 8 8 7 6 6 5 4 3 2 2 2 1 1 2 2 2 3 4 3
8 10 14 18 16 6 6 3 5 3 8 10 16 16 10 10 15 16 16 17 18 20 19 17 15 13 11 10 8 7 6 6 5 4 3 2 1 1 1 2 2 2 2 2 3 3 3 4 4
12 12 17 21 15 6 5 5 3 2 4 7 10 13 13 13 12 14 15 16 18 19 17 15 15 13 11 10 8 7 6 5 4 3 2 2 2 3 4 4 4 4 4 4 4 4 5 5 6
12 12 18 19 16 5 2 3 4 3 3 4 6 10 13 15 12 13 15 16 16 15 15 13 14 13 12 11 9 8 6 5 4 4 4 4 6 7 7 8 8 7 5 5 6 6 7 7 7
13 13 16 16 10 1 3 3 3 4 7 5 8 16 20 19 15 14 15 15 13 12 11 10 12 10 9 11 11 9 8 6 4 4 5 5 6 5 6 9 7 8 7 7 8 8 8 8 10
10 13 15 9 6 3 1 3 3 2 6 11 16 21 21 18 16 15 15 15 13 11 10 8 9 6 6 7 9 6 6 6 2 2 0 2 4 5 5 4 7 8 8 9 10 10 9 10 10
10 13 12 8 5 4 4 4 4 1 6 11 11 16 18 17 15 15 14 14 13 11 10 9 8 7 6 5 5 5 5 5 5 6 5 4 4 5 4 1 4 6 8 8 8 9 10 10 9
9 10 9 9 8 8 6 4 2 8 12 11 8 8 14 15 14 14 13 13 13 12 10 10 9 7 7 6 4 4 4 3 4 6 7 6 3 3 3 3 3 4 5 5 5 5 8 8 7
8 8 7 7 8 7 7 5 1 13 17 16 13 11 11 13 14 14 14 14 13 12 11 10 9 7 5 4 3 4 3 2 5 7 9 9 4 3 4 3 4 5 4 3 3 4 3 4 5
7 7 7 7 8 6 7 4 2 9 13 16 14 13 12 12 14 14 13 13 12 11 10 9 8 7 5 4 3 2 3 4 6 7 9 10 8 6 5 4 3 3 3 2 2 3 3 3 4
7 9 12 11 11 8 6 1 7 4 8 13 11 11 12 12 12 12 12 12 12 11 10 8 8 6 5 4 2 3 4 7 5 6 9 10 10 8 7 5 3 3 5 2 3 4 3 5 5
7 2 5 13 15 11 4 3 4 6 2 8 11 12 11 10 12 12 12 12 12 11 8 6 8 8 6 4 2 4 6 5 4 6 9 10 9 9 7 5 4 7 7 4 3 3 3 3 2
6 4 6 9 15 10 3 5 5 8 5 4 8 11 11 10 11 11 11 12 11 10 8 7 7 7 6 4 2 4 4 2 2 6 8 7 8 9 8 5 4 7 5 4 5 3 3 3 3
8 2 3 5 8 6 5 10 9 9 8 7 8 10 10 10 10 10 11 12 11 10 8 7 7 6 5 3 2 1 1 1 2 6 7 5 6 8 8 5 6 7 5 5 5 5 4 4 4
7 6 2 6 10 5 4 11 11 11 9 8 10 11 11 10 10 10 11 12 12 10 9 7 7 7 3 2 1 0 1 1 1 3 6 3 5 6 6 4 5 5 5 6 6 5 7 6 5
7 6 4 9 9 2 5 4 6 9 8 7 9 10 11 11 11 10 10 12 12 11 9 8 7 7 5 3 2 1 1 3 1 1 4 3 4 5 6 6 5 6 6 6 5 5 4 6 6
3 6 8 8 5 3 5 0 3 5 7 7 8 9 11 12 12 12 12 12 12 11 11 10 9 8 6 4 3 2 1 3 1 2 1 4 3 3 4 4 4 5 6 5 6 5 6 5 6
3 6 8 6 3 1 1 3 5 7 7 8 10 10 11 12 13 13 12 12 12 12 12 9 9 7 6 5 3 3 3 3 2 1 1 2 1 2 1 2 4 4 5 6 6 7 6 6 6
7 6 8 12 10 4 3 3 4 9 8 10 12 12 12 14 14 14 14 12 12 12 11 10 10 8 7 5 4 4 4 3 3 3 3 1 3 4 3 2 1 3 5 4 5 6 6 6 6
10 8 6 9 6 4 9 5 5 8 11 13 14 14 13 14 14 14 13 11 9 9 9 10 11 8 7 6 5 4 3 3 4 4 4 4 3 2 3 2 2 2 4 5 5 6 7 6 6
7 10 2 1 1 6 13 4 6 8 11 12 14 14 14 14 13 13 12 11 10 9 8 8 11 9 8 7 6 4 3 3 5 5 5 3 3 2 3 3 1 3 4 4 5 5 6 6 6
7 9 7 6 3 3 6 5 9 11 11 12 13 14 14 14 14 14 13 11 10 10 9 8 9 9 8 6 5 3 2 3 4 2 2 3 3 3 1 1 3 4 5 6 4 5 7 6 5
7 8 10 10 7 3 2 7 12 12 11 11 12 14 14 14 14 13 13 12 10 9 8 8 8 8 6 5 5 5 5 5 4 3 4 5 4 4 2 2 3 5 5 6 6 5 6 6 6
7 10 8 7 7 3 3 3 4 9 11 11 12 13 14 13 12 13 12 12 10 9 8 8 8 7 5 4 5 5 6 6 6 5 6 5 5 5 5 6 6 6 6 6 6 6 7 7 6
7 7 5 7 7 7 2 1 6 9 10 12 13 13 13 14 14 13 11 10 10 10 10 8 8 7 6 5 4 3 3 4 5 5 6 6 6 6 6 6 7 7 7 7 7 7 8 8 7
10 8 6 5 6 7 5 3 2 2 6 7 9 11 11 11 10 11 11 10 9 10 11 10 9 8 8 7 6 6 6 6 6 6 6 5 6 6 6 6 7 7 8 7 7 8 8 7 7
Wind_Direction
202 223 227 243 244 240 307 302 38 67 71 65 66 81 74 66 83 98 110 107 110 115 121 115 107 102 97 95 101 112 120 124 124 124 123 123 123 123 123 122 119 115 109 103 96 90 86 84 84
219 228 234 245 247 233 263 282 353 81 82 91 85 83 78 73 89 103 108 114 116 121 127 119 112 106 100 96 97 104 111 116 119 121 123 123 123 125 125 125 123 121 116 111 104 98 94 91 92
236 241 254 250 253 240 190 238 121 99 109 104 89 73 73 81 97 110 119 123 117 115 115 118 117 111 107 103 101 103 107 112 116 119 120 122 124 125 126 127 129 129 127 123 120 115 111 106 105
238 234 241 255 265 272 206 206 109 146 133 128 110 92 84 68 104 116 129 122 114 118 119 121 120 117 115 112 110 109 110 112 114 115 117 121 125 129 129 133 137 139 143 144 138 141 138 132 129
241 256 248 260 266 277 278 317 262 192 125 107 100 105 101 90 107 124 132 120 124 121 119 125 123 121 119 117 115 113 114 115 116 118 119 121 123 131 144 158 166 172 174 175 176 173 166 163 163
248 257 263 267 270 281 289 289 276 193 132 126 116 112 108 118 123 134 127 125 123 119 120 124 124 123 123 122 121 122 123 123 123 125 126 132 147 200 244 242 231 226 227 222 215 204 201 199 194
259 277 278 279 277 249 254 290 311 32 106 111 111 113 128 132 127 128 124 120 119 120 124 134 136 136 136 136 136 137 136 135 138 148 165 202 235 244 248 249 242 238 241 241 234 229 227 221 215
260 278 281 279 275 248 239 278 73 69 58 81 122 125 135 136 136 124 119 113 113 120 126 138 142 145 153 151 149 148 150 156 168 186 207 227 244 247 247 245 233 229 235 243 244 240 236 228 222
262 264 269 280 300 297 25 343 32 130 126 112 92 114 129 138 139 133 125 117 114 112 116 126 131 142 152 150 148 159 167 173 187 205 220 246 274 282 247 246 237 226 227 234 241 244 240 231 226
246 257 268 304 352 14 8 291 283 230 115 89 88 104 124 137 143 141 135 130 126 117 110 98 107 115 118 122 134 154 158 150 126 65 146 263 308 309 297 228 221 227 234 237 238 240 239 232 232
257 266 291 310 324 307 271 265 264 258 78 78 88 117 131 141 146 141 137 134 127 119 107 106 97 82 73 84 94 81 79 84 79 62 24 7 323 297 301 286 222 235 245 244 243 230 234 234 236
276 291 298 305 310 295 276 259 266 77 101 105 118 137 140 144 133 128 126 124 122 116 107 95 84 76 60 58 73 75 69 67 75 67 38 12 328 314 324 308 288 256 255 241 249 236 236 241 246
257 280 287 291 283 280 276 260 93 95 121 131 146 160 147 134 122 115 114 117 117 111 102 94 89 85 83 65 58 76 71 67 80 66 49 14 356 357 342 324 301 285 268 238 233 241 250 252 249
322 311 306 296 281 256 242 248 120 104 125 133 155 155 142 127 122 117 116 114 112 109 105 104 103 105 107 99 90 104 99 80 72 70 53 23 11 8 345 308 297 292 282 258 247 245 230 233 233
327 330 337 310 282 254 233 8 30 75 137 139 143 135 125 119 116 117 116 116 114 112 115 119 117 113 109 110 114 94 74 69 70 80 69 36 15 1 341 313 307 345 327 300 255 259 239 236 232
315 324 307 290 287 282 250 69 6 303 173 139 136 128 121 119 120 114 112 113 120 122 127 141 125 121 107 89 50 72 58 57 61 69 67 37 3 8 339 329 353 351 327 306 273 248 259 268 271
279 223 216 273 279 276 96 112 244 257 244 159 139 135 130 129 122 119 121 122 125 127 131 115 114 125 121 118 100 101 107 96 85 83 69 34 3 13 350 331 350 340 326 319 320 20 358 331 328
295 259 183 238 273 282 112 138 190 218 217 184 154 142 140 141 137 137 134 132 131 134 135 128 132 130 139 146 150 150 126 125 89 96 88 49 11 20 351 322 11 351 329 342 356 348 331 311 288
337 29 5 272 271 287 133 145 173 185 186 175 159 153 152 149 142 143 145 145 144 147 149 154 157 151 176 179 193 94 57 353 24 113 107 62 30 9 324 349 346 328 340 352 332 338 324 308 282
359 7 269 262 264 261 77 115 166 168 180 169 158 160 157 148 146 156 165 160 158 160 160 166 165 164 189 168 162 191 261 281 273 77 126 96 47 356 346 28 339 351 343 314 317 325 317 309 309
28 289 265 246 233 135 97 207 209 180 163 162 166 166 159 159 161 169 178 172 171 171 175 181 178 174 186 184 213 243 204 259 277 47 84 81 35 344 360 347 340 345 325 341 347 328 321 311 311
262 249 285 309 311 337 183 228 220 188 174 170 170 172 172 169 171 177 184 184 183 180 182 179 171 176 180 193 235 273 284 296 319 306 88 81 292 267 314 2 351 345 323 324 328 14 338 322 312
327 335 10 17 360 357 277 247 181 175 180 184 179 180 181 176 180 183 188 187 187 185 183 174 169 174 181 198 224 246 283 320 354 9 4 329 261 223 202 137 46 330 305 332 349 327 323 316 315
326 324 31 34 12 326 257 239 154 177 183 181 179 181 184 182 183 181 186 181 184 186 181 170 164 172 181 197 223 231 264 302 316 316 306 292 284 249 147 136 104 303 312 344 328 316 306 308 316
302 300 293 79 169 241 243 225 146 159 165 168 172 176 181 182 183 180 186 186 186 188 186 170 161 169 181 197 213 222 232 263 261 253 265 268 295 322 92 73 58 303 311 297 280 287 287 292 296
263 282 306 314 266 208 224 145 138 144 148 157 164 169 179 183 187 189 190 190 187 190 186 174 159 162 177 193 195 196 219 256 271 268 328 320 309 306 59 218 234 253 265 277 288 294 286 281 288
292 301 315 307 318 16 356 105 121 137 148 158 165 169 180 186 188 190 190 189 187 187 173 159 145 155 174 191 179 184 206 236 278 311 276 263 259 276 308 308 274 258 254 258 267 269 279 286 279
280 307 316 321 323 344 25 23 153 168 166 170 176 179 182 186 192 192 187 184 179 168 147 144 143 157 174 194 205 217 194 211 225 241 266 294 298 286 277 267 270 272 268 260 256 263 267 269 268
266 271 301 315 326 332 37 330 186 190 179 179 185 186 187 190 194 191 182 174 162 153 147 147 149 161 179 200 207 239 238 246 248 242 243 246 253 265 271 268 264 264 263 260 254 254 261 265 266
302 286 273 289 318 311 324 109 143 172 169 177 184 181 185 189 192 182 168 155 156 161 160 160 167 177 184 191 193 202 220 235 247 256 255 253 254 256 263 267 269 269 270 266 262 263 267 268 269
Height
1514 1514 1515 1517 1513 1508 1510 1492 1473 1473 1471 1474 1475 1480 1489 1493 1501 1514 1516 1517 1518 1521 1525 1528 1532 1535 1538 1540 1542 1544 1546 1548 1549 1550 1551 1552 1553 1554 1554 1555 1556 1556 1557 1558 1559 1560 1560 1561 1561
1514 1514 1517 1514 1504 1512 1513 1491 1479 1473 1473 1474 1477 1482 1490 1498 1505 1511 1516 1519 1520 1522 1526 1529 1533 1536 1539 1541 1543 1545 1547 1548 1550 1551 1552 1553 1554 1555 1555 1556 1557 1557 1558 1559 1560 1561 1561 1562 1562
1514 1515 1516 1502 1492 1496 1502 1485 1475 1472 1474 1475 1478 1486 1494 1503 1508 1512 1517 1520 1522 1525 1527 1531 1534 1537 1540 1542 1544 1546 1548 1549 1551 1552 1553 1554 1555 1555 1556 1557 1557 1558 1559 1560 1560 1561 1562 1562 1563
1515 1515 1511 1498 1488 1476 1477 1473 1471 1472 1474 1476 1480 1491 1500 1505 1509 1513 1518 1522 1524 1526 1529 1532 1535 1538 1541 1543 1545 1547 1548 1550 1551 1552 1553 1554 1555 1556 1556 1557 1558 1558 1559 1560 1561 1562 1562 1563 1564
1516 1511 1502 1494 1481 1472 1471 1471 1471 1470 1475 1477 1481 1494 1503 1507 1511 1515 1519 1523 1526 1529 1530 1534 1537 1539 1542 1544 1546 1547 1549 1551 1552 1553 1554 1555 1555 1556 1556 1557 1558 1558 1559 1560 1561 1562 1562 1563 1564
1514 1504 1501 1494 1480 1476 1474 1471 1472 1473 1477 1479 1485 1493 1504 1508 1512 1516 1520 1524 1527 1529 1532 1535 1538 1540 1543 1545 1547 1548 1550 1551 1552 1553 1554 1555 1555 1556 1556 1557 1557 1558 1559 1560 1561 1561 1562 1563 1564
1513 1504 1498 1488 1480 1478 1479 1476 1475 1477 1480 1480 1484 1491 1502 1508 1513 1517 1521 1525 1528 1531 1533 1536 1539 1542 1544 1545 1547 1549 1550 1551 1552 1553 1554 1554 1555 1555 1556 1556 1557 1557 1558 1559 1560 1560 1561 1562 1563
1509 1504 1497 1486 1479 1479 1477 1477 1476 1481 1485 1483 1485 1492 1502 1509 1513 1517 1522 1526 1530 1533 1536 1538 1541 1543 1544 1546 1547 1549 1550 1551 1552 1553 1553 1554 1554 1555 1555 1556 1556 1556 1557 1558 1559 1559 1560 1561 1562
1506 1505 1499 1485 1479 1479 1478 1479 1481 1483 1488 1486 1484 1490 1500 1508 1514 1518 1522 1527 1531 1534 1537 1540 1542 1544 1545 1546 1547 1548 1550 1551 1551 1552 1552 1553 1553 1554 1554 1554 1554 1555 1555 1556 1557 1558 1559 1560 1561
1502 1501 1491 1481 1479 1481 1482 1484 1485 1487 1489 1491 1489 1496 1503 1509 1514 1518 1523 1527 1532 1535 1538 1540 1542 1544 1547 1548 1548 1549 1550 1551 1551 1551 1551 1552 1552 1553 1553 1553 1553 1553 1553 1554 1555 1556 1557 1558 1559
1496 1493 1486 1483 1482 1483 1484 1484 1484 1488 1493 1494 1497 1501 1507 1512 1516 1519 1523 1528 1532 1535 1538 1541 1542 1544 1546 1548 1548 1549 1550 1550 1551 1551 1551 1551 1551 1551 1551 1551 1551 1551 1551 1552 1553 1553 1554 1555 1556
1495 1490 1489 1487 1486 1485 1484 1484 1488 1491 1499 1498 1503 1507 1510 1514 1516 1520 1524 1528 1532 1536 1538 1540 1542 1544 1546 1547 1548 1549 1549 1550 1551 1550 1550 1550 1550 1550 1549 1549 1549 1549 1549 1549 1550 1551 1552 1553 1554
1494 1492 1490 1489 1488 1488 1486 1486 1489 1495 1499 1501 1506 1511 1513 1514 1518 1521 1525 1528 1532 1535 1537 1539 1542 1543 1545 1547 1548 1549 1550 1550 1550 1550 1549 1549 1548 1548 1547 1547 1547 1547 1547 1547 1548 1548 1549 1550 1550
1493 1491 1491 1490 1488 1487 1487 1487 1490 1497 1500 1502 1507 1510 1512 1515 1518 1521 1525 1529 1532 1535 1537 1539 1542 1544 1545 1547 1548 1549 1550 1550 1550 1549 1548 1547 1546 1545 1545 1545 1545 1545 1545 1545 1546 1546 1547 1547 1548
1495 1496 1497 1493 1488 1487 1487 1493 1499 1500 1503 1503 1508 1511 1513 1516 1519 1522 1526 1529 1532 1534 1537 1539 1541 1544 1546 1548 1549 1550 1550 1550 1549 1548 1547 1545 1545 1544 1543 1543 1544 1543 1543 1544 1544 1545 1545 1545 1545
1497 1505 1515 1501 1493 1488 1490 1509 1507 1506 1506 1506 1507 1511 1514 1516 1521 1523 1526 1529 1531 1534 1537 1540 1542 1544 1546 1547 1549 1549 1549 1549 1549 1548 1546 1544 1544 1543 1542 1541 1542 1541 1542 1542 1543 1543 1543 1543 1543
1499 1510 1516 1510 1494 1490 1495 1514 1508 1506 1508 1508 1509 1513 1516 1518 1522 1524 1526 1529 1531 1534 1537 1540 1542 1544 1546 1547 1548 1549 1549 1549 1549 1547 1545 1544 1543 1541 1540 1540 1540 1539 1540 1540 1541 1540 1540 1540 1540
1498 1499 1508 1509 1496 1490 1495 1509 1511 1511 1512 1511 1511 1514 1516 1519 1522 1524 1526 1529 1531 1534 1537 1540 1542 1544 1546 1547 1548 1549 1549 1549 1548 1546 1544 1543 1542 1540 1539 1539 1538 1538 1538 1538 1538 1538 1538 1538 1538
1485 1496 1504 1501 1490 1490 1494 1503 1506 1507 1509 1510 1512 1513 1515 1518 1521 1524 1527 1529 1532 1535 1537 1540 1542 1543 1545 1546 1547 1548 1548 1548 1547 1546 1543 1542 1541 1539 1539 1538 1537 1537 1536 1536 1536 1536 1536 1536 1537
1486 1498 1502 1493 1487 1488 1497 1502 1501 1503 1507 1508 1509 1512 1514 1517 1521 1524 1527 1530 1532 1535 1537 1539 1541 1542 1544 1545 1546 1546 1546 1546 1546 1545 1543 1541 1539 1538 1538 1536 1535 1535 1534 1534 1534 1534 1534 1534 1535
1491 1496 1492 1491 1485 1487 1499 1509 1502 1499 1503 1507 1508 1510 1513 1516 1520 1524 1527 1530 1532 1534 1536 1539 1540 1541 1543 1544 1544 1545 1545 1545 1545 1543 1542 1540 1538 1537 1536 1535 1534 1533 1533 1533 1533 1533 1532 1532 1532
1489 1482 1481 1484 1491 1501 1505 1518 1504 1498 1501 1504 1507 1509 1511 1515 1519 1523 1526 1529 1531 1533 1535 1537 1538 1540 1541 1542 1542 1543 1543 1543 1543 1541 1540 1538 1537 1536 1535 1534 1532 1531 1531 1531 1531 1530 1530 1530 1530
1478 1475 1482 1492 1503 1509 1510 1510 1505 1497 1501 1501 1503 1506 1509 1513 1517 1521 1524 1527 1530 1532 1533 1535 1536 1537 1538 1539 1540 1540 1540 1541 1540 1539 1538 1537 1536 1535 1534 1532 1531 1530 1530 1530 1529 1528 1527 1527 1528
1475 1479 1489 1504 1517 1532 1510 1505 1506 1493 1493 1495 1498 1503 1507 1511 1515 1519 1522 1525 1528 1530 1532 1533 1534 1535 1536 1537 1537 1538 1538 1537 1536 1536 1535 1535 1535 1535 1533 1532 1530 1529 1529 1528 1527 1526 1525 1525 1525
1481 1489 1506 1527 1540 1530 1498 1497 1496 1483 1483 1488 1493 1499 1504 1509 1513 1517 1520 1523 1525 1528 1530 1531 1532 1533 1534 1535 1535 1535 1535 1535 1534 1534 1534 1534 1534 1534 1532 1530 1529 1527 1527 1526 1525 1524 1524 1523 1523
1478 1481 1498 1511 1513 1507 1492 1491 1483 1477 1481 1485 1490 1496 1502 1506 1510 1513 1516 1520 1522 1525 1527 1529 1530 1530 1532 1533 1533 1533 1533 1532 1533 1533 1532 1532 1531 1531 1530 1528 1526 1525 1524 1524 1523 1522 1521 1521 1520
1476 1476 1471 1480 1485 1500 1495 1483 1481 1477 1481 1484 1489 1494 1499 1502 1506 1509 1512 1516 1519 1521 1524 1526 1527 1528 1530 1530 1530 1530 1530 1530 1530 1529 1529 1529 1529 1528 1527 1526 1524 1523 1522 1521 1520 1519 1519 1518 1517
1471 1471 1474 1484 1499 1506 1508 1501 1497 1485 1482 1483 1486 1490 1495 1499 1502 1506 1509 1512 1515 1518 1520 1523 1525 1526 1527 1528 1528 1529 1527 1527 1526 1526 1526 1525 1525 1524 1523 1522 1521 1520 1519 1518 1517 1516 1515 1515 1514
1477 1475 1476 1478 1482 1498 1515 1515 1484 1479 1477 1479 1482 1486 1491 1494 1498 1501 1505 1509 1512 1515 1517 1520 1522 1523 1524 1525 1525 1525 1525 1525 1524 1523 1523 1522 1521 1520 1519 1518 1517 1516 1516 1515 1514 1512 1512 1511 1510
1472 1472 1475 1489 1492 1488 1494 1502 1474 1473 1473 1475 1478 1482 1487 1491 1494 1498 1502 1505 1509 1513 1515 1517 1519 1520 1521 1522 1522 1522 1521 1521 1520 1520 1520 1519 1518 1517 1516 1515 1514 1513 1512 1511 1510 1508 1508 1507 1505